Regional Weather Roundup
Issued by NWS Glasgow, MT

Home | Current Version | Previous Version | Text Only | Print | Product List | Glossary On
Versions: 1 2 3 4 5 6 7 8 9 10 11 12 13 14 15 16 17 18 19 20 21 22 23 24 25 26 27
000
ASUS45 KGGW 191915
RWRGGW
HOURLY REGIONAL WEATHER ROUNDUP FOR NORTHEAST MONTANA
NATIONAL WEATHER SERVICE GLASGOW MONTANA
1200 PM MST THU JAN 19 2017

NOTE: "FAIR" INDICATES FEW OR NO CLOUDS BELOW 12,000 FEET WITH NO
SIGNIFICANT WEATHER AND/OR OBSTRUCTIONS TO VISISBILITY.

NORTHEAST MONTANA


CITY           SKY/WX    TMP DP  RH WIND       PRES   REMARKS
GLASGOW        CLOUDY    29  21  72 E7        29.44F
PLENTYWOOD       N/A     31  25  78 SE3         N/A
WOLF POINT     CLOUDY    24  18  77 CALM      29.46F
JORDAN           N/A     43  30  60 W6        29.44F
WINNETT          N/A     44  30  57 W3          N/A
SIDNEY         CLOUDY    27  21  78 S8        29.46F
GLENDIVE       CLOUDY    26  20  77 S13       29.46F
MALTA            N/A     33  27  78 NE2         N/A
SCOBEY           N/A     32  20  61 CALM      29.44F

FORT PECK REPORTS


CITY           SKY/WX    TMP DP  RH WIND       PRES   REMARKS
FORT PECK        N/A     36  28  73 S5          N/A
THE PINES        N/A     42  26  53 CALM        N/A

SOUTHEAST MONTANA


CITY           SKY/WX    TMP DP  RH WIND       PRES   REMARKS
BILLINGS       CLOUDY    40  22  48 SW14      29.49F
MILES CITY     CLOUDY    26  17  68 S10       29.48F
BAKER          CLOUDY    30  20  66 W6        29.48F
LIVINGSTON     CLOUDY    46  24  42 SW30G44   29.51F

CENTRAL MONTANA


CITY           SKY/WX    TMP DP  RH WIND       PRES   REMARKS
HAVRE          PTSUNNY   41  32  70 W7        29.43F
LEWISTOWN      CLOUDY    41  29  62 CALM      29.47F
GREAT FALLS    CLOUDY    41  28  60 SW16      29.46F
CUT BANK       CLOUDY    42  29  59 SW13      29.42F
HELENA         CLOUDY    36  26  67 NW3       29.53F
BUTTE          CLOUDY    30  24  78 S3        29.55F
BOZEMAN        CLOUDY    32  27  81 NW6       29.56F

WESTERN MONTANA


CITY           SKY/WX    TMP DP  RH WIND       PRES   REMARKS
MISSOULA       CLOUDY    34  30  86 CALM      29.57F
KALISPELL      NOT AVBL

NORTH DAKOTA


CITY           SKY/WX    TMP DP  RH WIND       PRES   REMARKS
WILLISTON      CLOUDY    30  20  66 SW5       29.47F
DICKINSON      CLOUDY    32  25  75 SW6       29.44F
MINOT          CLOUDY    40  30  67 NW3       29.44F
BISMARCK       CLOUDY    23  17  78 E5        29.51F

SOUTHERN SASKATCHEWAN


CITY           SKY/WX    TMP DP  RH WIND       PRES   REMARKS
REGINA         PTSUNNY   34  28  80 SE7       29.40F
MOOSE JAW      PTSUNNY   48  32  53 W7        29.39F
ESTEVAN        PTSUNNY   30  25  80 SW9       29.44F
SWIFT CURRENT  PTSUNNY   45  34  65 SW16      29.34F





USA.gov is the U.S. government's official web portal to all federal, state and local government web resources and services.